User: anonymous
Location: Caltech
(34.1382°N, 118.1253°W)
Time: 04:15:40
(UTC-07:00)
Language:

MaSat-1 - Orbit

View from above orbital plane
View from above orbital plane
View from above satellite
View from above satellite

Ground track
Ground track

The orbit data is extracted from the following two-line orbital elements,

1 38081U 12006E   14244.14249765  .00074133  47869-5  72615-3 0  3649
2 38081 069.4594 148.9067 0332080 244.6447 231.0942 15.19830886134975
Epoch (UTC): 01 September 2014 03:25:11
Eccentricity: 0.0332080
inclination: 69.4594°
perigee height: 278 km
apogee height: 735 km
right ascension of ascending node: 148.9067°
argument of perigee: 244.6447°
revolutions per day: 15.19830886
mean anomaly at epoch: 231.0942°
orbit number at epoch: 13497

The dashed part of the orbit path shows where the satellite is in the earth's shadow,  

DLR